[[{"header":{"parameterUnit":"m.s-1","parameterCategory":1,"la1":30.2991,"la2":30.254,"lo1":-89.0895,"lo2":-89.0444,"dy":0.0017,"dx":0.0017,"nx":28,"ny":28,"refTime":"2025-04-14T09:00:00:Z","depth":0,"parameterNumber":2,"parameterNumberName":"U-component_of_WINDS"},"data":[0,0,0,0,0,0,0,0,0,0,0,0,0,0,0,0,0,0,0,0,0,0,0,0,0,0,0,0,0,0,0,0,0,0,0,0,0,0,0,0,0,0,0,0,0,0,0,0,0,0,0,0,0,0,0,0,0,0,0.8609,0.8609,0,0.8629,0.863,0.863,0.8654,0.8655,0.8655,0.8656,0.8676,0.8676,0.8677,0,0,0,0,0,0,0,0,0,0,0,0,0,0.8593,0.8593,0.8609,0.8609,0.861,0.8629,0.863,0.863,0.8654,0.8655,0.8655,0.8656,0.8676,0.8676,0.8677,0,0,0,0,0,0,0,0,0,0,0,0,0,0.8605,0.8593,0.8609,0.8624,0.8626,0.8629,0.863,0.863,0.8654,0.8655,0.8655,0.8656,0.8676,0.8676,0.8677,0.8667,0,0,0.8678,0.8678,0,0,0,0,0,0,0,0,0.8605,0.8606,0.8622,0.8623,0.8625,0.864,0.8632,0.8642,0.8654,0.8643,0.8656,0.8656,0.8664,0.8665,0.8668,0.8668,0.8669,0.8678,0.8678,0.8678,0.8678,0,0,0,0,0,0,0,0.8604,0.8605,0.8617,0.8622,0.8624,0.8631,0.8633,0.8634,0.865,0.8644,0.8646,0.8648,0.8665,0.8667,0.8668,0.8669,0.8678,0.8678,0.8678,0.8678,0.8664,0.8664,0,0,0,0,0,0,0.86,0.8604,0.8617,0.8618,0.8616,0.863,0.8633,0.8635,0.865,0.8653,0.8648,0.8649,0.8666,0.8668,0.8669,0.8659,0.8678,0.8678,0.8678,0.8665,0.8664,0.8664,0,0,0,0,0,0,0.86,0.8601,0.8616,0.8612,0.8614,0.863,0.8632,0.8635,0.8637,0.8653,0.8656,0.8647,0.8667,0.8669,0.8668,0.866,0.8678,0.8679,0.8665,0.8665,0.8664,0.8639,0,0,0,0,0,0,0.8599,0.8601,0.8597,0.8611,0.8614,0.8613,0.8631,0.8635,0.8638,0.864,0.8653,0.8656,0.8668,0.8667,0.8668,0.8661,0.8679,0.8666,0.8665,0.8664,0.8641,0.8638,0.8635,0,0,0,0,0,0.8599,0.8589,0.8597,0.8598,0.8609,0.8613,0.8615,0.8628,0.8637,0.8633,0.8644,0.8655,0.8661,0.8667,0.8668,0.8661,0.8667,0.8665,0.8664,0.8642,0.8638,0.8635,0,0,0,0,0,0,0.8573,0.8591,0.86,0.8594,0.8602,0.8617,0.8613,0.8624,0.8629,0.8631,0.8648,0.8651,0.8648,0.8655,0.866,0.8653,0.8666,0.8665,0.8649,0.8645,0.8642,0.864,0.8679,0,0,0,0,0,0.8566,0.8568,0.8584,0.8577,0.8581,0.8596,0.8598,0.8608,0.8617,0.862,0.863,0.8638,0.8642,0.8644,0.8649,0.8643,0.8646,0.8639,0.8636,0.8633,0.8632,0.863,0.8627,0.866,0.866,0.866,0,0,0.8553,0.8563,0.8563,0.8572,0.8579,0.8581,0.8599,0.8599,0.86,0.862,0.862,0.8628,0.8638,0.8635,0.8634,0.864,0.8624,0.8632,0.863,0.863,0.8629,0.8626,0.8623,0.8659,0.8659,0.8659,0,0,0.853,0.8537,0.8533,0.854,0.8551,0.8562,0.8561,0.8575,0.8581,0.8582,0.8597,0.8599,0.8605,0.8612,0.8617,0.8598,0.8609,0.8599,0.8584,0.8582,0.858,0.8577,0.8571,0.8568,0.8598,0.8598,0.8598,0,0.8511,0.8514,0.853,0.8529,0.8533,0.8553,0.8549,0.8556,0.8567,0.857,0.8577,0.8586,0.8595,0.8594,0.8589,0.8592,0.8592,0.8597,0.8579,0.8577,0.8575,0.8569,0.8566,0.8597,0.8597,0.8597,0.8597,0,0.8491,0.8493,0.8488,0.85,0.8504,0.8502,0.8518,0.852,0.8531,0.8541,0.8541,0.8552,0.856,0.8561,0.857,0.8561,0.8565,0.8575,0.8588,0.857,0.8565,0.8563,0.8595,0.8595,0.8596,0.8596,0,0,0.845,0.8472,0.847,0.8475,0.849,0.8492,0.8492,0.8499,0.8501,0.8509,0.8509,0.8515,0.8525,0.853,0.8542,0.854,0.8525,0.8551,0.8551,0.8545,0.8517,0.8508,0.8505,0.8533,0.8533,0.8533,0.8516,0,0.8429,0.8428,0.8444,0.844,0.8442,0.8462,0.8462,0.8471,0.8481,0.8485,0.8496,0.85,0.8513,0.8516,0.8516,0.8527,0.852,0.8529,0.8534,0.8534,0.853,0.8502,0.8493,0.8476,0.8514,0.8513,0.8513,0,0.8403,0.841,0.8406,0.8423,0.8424,0.8424,0.8433,0.8436,0.8447,0.8455,0.8462,0.8475,0.8477,0.849,0.8492,0.8498,0.8502,0.8508,0.8508,0.8508,0.8522,0.8502,0.8471,0.8469,0.851,0.851,0.8511,0,0.8373,0.8382,0.8381,0.8386,0.8404,0.8404,0.8412,0.8424,0.8428,0.8436,0.8439,0.8448,0.8452,0.8459,0.8474,0.8482,0.8475,0.8489,0.8482,0.8481,0.8478,0.8478,0.8448,0.8482,0.8482,0.8482,0.8482,0,0.8347,0.8344,0.8368,0.8367,0.8365,0.8384,0.8381,0.8391,0.8402,0.8404,0.8422,0.8424,0.8445,0.8449,0.8461,0.8462,0.8464,0.8471,0.8474,0.8468,0.8468,0.847,0.8471,0.8481,0.8481,0.8482,0.8482,0,0.8312,0.8328,0.8329,0.8347,0.8352,0.8349,0.8365,0.8366,0.8378,0.8381,0.8382,0.8401,0.8408,0.8424,0.8435,0.8443,0.8441,0.8447,0.8436,0.8438,0.843,0.843,0.8399,0.8396,0.8433,0.8432,0.8432,0,0.8294,0.8292,0.8311,0.8314,0.8321,0.8325,0.833,0.8349,0.8353,0.8367,0.8366,0.8374,0.8381,0.8391,0.8406,0.8414,0.8421,0.8409,0.8422,0.8417,0.842,0.842,0.842,0.8406,0.8406,0.8405,0.8405,0,0.826,0.8269,0.8274,0.8284,0.8289,0.8297,0.8306,0.8308,0.8329,0.8333,0.834,0.8346,0.8357,0.8365,0.8376,0.8385,0.8399,0.8401,0.84,0.8394,0.8388,0.8391,0.8428,0.8401,0.8402,0.8402,0.8402,0.8402,0.8233,0.8233,0.8246,0.8252,0.8262,0.827,0.8272,0.8285,0.8291,0.8302,0.8313,0.8319,0.8333,0.8349,0.8357,0.8363,0.837,0.8368,0.8367,0.8366,0.8364,0.8388,0.8365,0.8365,0.8365,0.8365,0.8365,0,0.82,0.821,0.8216,0.8228,0.8234,0.8247,0.8258,0.8262,0.8267,0.8278,0.8286,0.8294,0.8303,0.8319,0.8329,0.833,0.8337,0.8332,0.8332,0.8334,0.8357,0.8357,0.8327,0.8327,0.8327,0.8327,0.8327,0.8327,0.8183,0.8183,0.8194,0.82,0.821,0.8216,0.8221,0.823,0.8239,0.8248,0.8255,0.8266,0.828,0.8291,0.83,0.8305,0.8307,0.83,0.8307,0.8328,0.8332,0.8335,0.8335,0.8301,0.8301,0.8283,0.8283,0.8283]},{"header":{"parameterUnit":"m.s-1","parameterCategory":1,"la1":30.2991,"la2":30.254,"lo1":-89.0895,"lo2":-89.0444,"dy":0.0017,"dx":0.0017,"nx":28,"ny":28,"refTime":"2025-04-14T09:00:00:Z","depth":0,"parameterNumber":3,"parameterNumberName":"V-component_of_WINDS"},"data":[0,0,0,0,0,0,0,0,0,0,0,0,0,0,0,0,0,0,0,0,0,0,0,0,0,0,0,0,0,0,0,0,0,0,0,0,0,0,0,0,0,0,0,0,0,0,0,0,0,0,0,0,0,0,0,0,0,0,-4.0919,-4.0919,0,-4.0956,-4.0956,-4.0957,-4.0978,-4.0978,-4.0978,-4.0978,-4.1011,-4.1011,-4.1012,0,0,0,0,0,0,0,0,0,0,0,0,0,-4.0865,-4.0865,-4.0919,-4.0919,-4.092,-4.0956,-4.0956,-4.0957,-4.0978,-4.0978,-4.0978,-4.0978,-4.101,-4.1011,-4.1012,0,0,0,0,0,0,0,0,0,0,0,0,0,-4.0893,-4.0866,-4.0919,-4.0935,-4.0937,-4.0956,-4.0956,-4.0957,-4.0978,-4.0978,-4.0978,-4.0978,-4.101,-4.1011,-4.1012,-4.1017,0,0,-4.1016,-4.1016,0,0,0,0,0,0,0,0,-4.0892,-4.0895,-4.0932,-4.0934,-4.0936,-4.0963,-4.0949,-4.0977,-4.0978,-4.0962,-4.0978,-4.0978,-4.0994,-4.0997,-4.1003,-4.1018,-4.102,-4.1016,-4.1017,-4.1017,-4.1018,0,0,0,0,0,0,0,-4.089,-4.0894,-4.0933,-4.0932,-4.0935,-4.094,-4.0944,-4.0954,-4.0977,-4.0963,-4.0965,-4.097,-4.0995,-4.1002,-4.1004,-4.102,-4.1016,-4.1017,-4.1018,-4.1018,-4.1045,-4.1045,0,0,0,0,0,0,-4.0886,-4.0892,-4.0932,-4.0934,-4.0914,-4.094,-4.0945,-4.0954,-4.0977,-4.098,-4.0969,-4.097,-4.1,-4.1003,-4.1005,-4.1015,-4.1017,-4.1018,-4.1019,-4.1045,-4.1045,-4.1045,0,0,0,0,0,0,-4.0884,-4.0889,-4.0931,-4.0914,-4.092,-4.0941,-4.0951,-4.0954,-4.0961,-4.0981,-4.0985,-4.0972,-4.1,-4.1004,-4.1015,-4.1016,-4.1019,-4.102,-4.1045,-4.1045,-4.1045,-4.1032,0,0,0,0,0,0,-4.0883,-4.0888,-4.089,-4.0914,-4.092,-4.094,-4.0951,-4.0955,-4.0964,-4.0966,-4.0985,-4.0988,-4.1001,-4.1013,-4.1016,-4.1018,-4.1021,-4.1045,-4.1045,-4.1045,-4.1033,-4.1032,-4.1031,0,0,0,0,0,-4.0881,-4.0883,-4.089,-4.0895,-4.0923,-4.094,-4.0944,-4.096,-4.0964,-4.0966,-4.098,-4.0988,-4.1016,-4.1014,-4.1018,-4.102,-4.1045,-4.1045,-4.1045,-4.1033,-4.1032,-4.1031,0,0,0,0,0,0,-4.0856,-4.0886,-4.0894,-4.0905,-4.092,-4.0944,-4.0947,-4.0957,-4.097,-4.0971,-4.0988,-4.0993,-4.1003,-4.1012,-4.101,-4.1028,-4.1031,-4.1032,-4.1021,-4.102,-4.102,-4.1017,-4.1022,0,0,0,0,0,-4.0852,-4.0864,-4.089,-4.0896,-4.0904,-4.0924,-4.0932,-4.0944,-4.0959,-4.0965,-4.0979,-4.0993,-4.1006,-4.1013,-4.1026,-4.1034,-4.104,-4.1038,-4.1037,-4.1036,-4.1037,-4.1046,-4.1046,-4.1045,-4.1045,-4.1045,0,0,-4.0843,-4.0861,-4.0867,-4.0892,-4.0905,-4.0918,-4.0929,-4.0941,-4.095,-4.0966,-4.098,-4.0991,-4.1008,-4.1019,-4.1025,-4.1027,-4.1039,-4.1036,-4.1036,-4.1037,-4.1046,-4.1046,-4.1046,-4.1045,-4.1045,-4.1045,0,0,-4.0834,-4.0848,-4.0857,-4.0872,-4.0893,-4.0908,-4.091,-4.0933,-4.0943,-4.0957,-4.097,-4.0981,-4.1001,-4.1015,-4.1024,-4.1025,-4.1034,-4.1028,-4.1024,-4.1033,-4.1033,-4.1033,-4.1036,-4.1037,-4.1029,-4.1029,-4.1029,0,-4.0819,-4.084,-4.086,-4.0873,-4.0884,-4.0903,-4.0913,-4.0925,-4.0948,-4.0956,-4.0959,-4.0988,-4.1,-4.1017,-4.1018,-4.1024,-4.1028,-4.1026,-4.1032,-4.1032,-4.1033,-4.1036,-4.1037,-4.1028,-4.1028,-4.1028,-4.1028,0,-4.0823,-4.0837,-4.0842,-4.0869,-4.088,-4.0891,-4.0913,-4.0922,-4.0934,-4.0948,-4.0964,-4.098,-4.0998,-4.1003,-4.1012,-4.1022,-4.1023,-4.1029,-4.1033,-4.1032,-4.1035,-4.1036,-4.1027,-4.1027,-4.1028,-4.1028,0,0,-4.0796,-4.0838,-4.0839,-4.0853,-4.088,-4.0892,-4.0904,-4.0925,-4.0934,-4.095,-4.0963,-4.0982,-4.0989,-4.0999,-4.1011,-4.1018,-4.1023,-4.1023,-4.1024,-4.1025,-4.1038,-4.1035,-4.1035,-4.1029,-4.1029,-4.1029,-4.1037,0,-4.0793,-4.0819,-4.0839,-4.0857,-4.0873,-4.0893,-4.0905,-4.0923,-4.0937,-4.0952,-4.0967,-4.0982,-4.0988,-4.0996,-4.1004,-4.102,-4.1026,-4.102,-4.1041,-4.1041,-4.1037,-4.1037,-4.1032,-4.1039,-4.1038,-4.1038,-4.1039,0,-4.0791,-4.0811,-4.0832,-4.0863,-4.087,-4.088,-4.0903,-4.0916,-4.0938,-4.0948,-4.0963,-4.0976,-4.0992,-4.0995,-4.1018,-4.1014,-4.1024,-4.1033,-4.1034,-4.1037,-4.104,-4.1042,-4.1041,-4.1043,-4.104,-4.104,-4.104,0,-4.0773,-4.0804,-4.0822,-4.0833,-4.0868,-4.0876,-4.0891,-4.0913,-4.0926,-4.0945,-4.0954,-4.0974,-4.0985,-4.1,-4.1019,-4.1019,-4.104,-4.1044,-4.105,-4.105,-4.1053,-4.1053,-4.1056,-4.1058,-4.1058,-4.1058,-4.1058,0,-4.0767,-4.0779,-4.0816,-4.0826,-4.0842,-4.0866,-4.088,-4.0896,-4.0917,-4.0932,-4.0949,-4.0963,-4.0986,-4.1003,-4.1017,-4.1036,-4.1039,-4.1049,-4.1053,-4.1048,-4.1047,-4.1055,-4.1056,-4.1058,-4.1058,-4.1058,-4.1058,0,-4.0748,-4.0773,-4.0794,-4.0828,-4.0837,-4.0847,-4.0875,-4.0887,-4.0905,-4.0924,-4.0929,-4.0956,-4.0977,-4.0998,-4.1024,-4.1034,-4.1053,-4.1057,-4.1046,-4.1049,-4.1054,-4.1054,-4.1063,-4.1067,-4.1064,-4.1064,-4.1064,0,-4.0743,-4.0754,-4.0791,-4.0804,-4.0819,-4.0838,-4.0853,-4.0878,-4.0892,-4.0921,-4.093,-4.0952,-4.0972,-4.1004,-4.1026,-4.1047,-4.1053,-4.1055,-4.1056,-4.1053,-4.1056,-4.1056,-4.1058,-4.1054,-4.1054,-4.1054,-4.1054,0,-4.0733,-4.0747,-4.0767,-4.0794,-4.0812,-4.0833,-4.0855,-4.0864,-4.0893,-4.0908,-4.0932,-4.0947,-4.0978,-4.1001,-4.1026,-4.104,-4.1053,-4.1054,-4.1057,-4.1053,-4.1047,-4.1053,-4.1046,-4.1054,-4.1054,-4.1054,-4.1054,-4.1054,-4.0723,-4.0736,-4.0765,-4.0789,-4.0809,-4.083,-4.0845,-4.0866,-4.0887,-4.0915,-4.0928,-4.0953,-4.0978,-4.1014,-4.1028,-4.1048,-4.1051,-4.1054,-4.1055,-4.1056,-4.1056,-4.1044,-4.1052,-4.1052,-4.1052,-4.1052,-4.1052,0,-4.0716,-4.0737,-4.0759,-4.0792,-4.0812,-4.0825,-4.0851,-4.0866,-4.0888,-4.0912,-4.0932,-4.0961,-4.0985,-4.101,-4.1035,-4.1046,-4.1053,-4.1052,-4.1052,-4.1056,-4.1051,-4.1047,-4.1047,-4.1047,-4.1047,-4.1047,-4.1047,-4.1047,-4.0714,-4.0738,-4.0755,-4.0789,-4.081,-4.0836,-4.085,-4.0871,-4.0891,-4.0923,-4.0944,-4.0962,-4.0987,-4.1015,-4.1038,-4.1045,-4.1054,-4.1052,-4.1061,-4.1055,-4.1056,-4.1056,-4.1053,-4.1053,-4.1053,-4.1064,-4.1064,-4.1064]}]]